FW1358 Weather Reports


time (UTC)temp
C
wind
direction
speed
KPH
gust
KPH
rain 1hr
cm
rain 24hr
cm
rain mn
cm
humidity
%
barometer
mb
20220930170804 22 265 0.0 4.8 0.00 0.00 0.00 45 1018.6
20220930170304 22 254 0.0 4.8 0.00 0.00 0.00 49 1018.6
20220930165305 22 171 0.0 0.0 0.00 0.00 0.00 48 1018.7
20220930164804 22 347 0.0 0.0 0.00 0.00 0.00 50 1018.8
20220930164304 22 4 0.0 0.0 0.00 0.00 0.00 50 1018.7
20220930163304 21 178 0.0 0.0 0.00 0.00 0.00 52 1018.9
20220930162305 21 93 0.0 0.0 0.00 0.00 0.00 53 1019.0
20220930160304 20 273 0.0 3.2 0.00 0.00 0.00 55 1019.4
20220930154804 20 164 0.0 3.2 0.00 0.00 0.00 59 1019.4
20220930154304 19 306 0.0 1.6 0.00 0.00 0.00 60 1019.5
20220930153804 19 173 0.0 0.0 0.00 0.00 0.00 60 1019.6
20220930152802 18 106 0.0 0.0 0.00 0.00 0.00 63 1019.9
20220930152305 18 258 0.0 1.6 0.00 0.00 0.00 65 1019.9
20220930151803 18 244 0.0 1.6 0.00 0.00 0.00 64 1020.1
20220930145305 16 173 0.0 0.0 0.00 0.00 0.00 72 1020.2
20220930144303 15 171 0.0 0.0 0.00 0.00 0.00 77 1020.1
20220930143802 15 173 0.0 0.0 0.00 0.00 0.00 77 1020.1
20220930143302 15 172 0.0 0.0 0.00 0.00 0.00 80 1020.1
20220930142304 14 257 0.0 1.6 0.00 0.00 0.00 80 1020.3
20220930141803 13 238 0.0 1.6 0.00 0.00 0.00 82 1020.4
20220930141302 13 161 0.0 1.6 0.00 0.00 0.00 86 1020.4
20220930140803 12 173 0.0 1.6 0.00 0.00 0.00 84 1020.4
20220930132304 8 229 0.0 0.0 0.00 0.00 0.00 95 1020.8
20220930130803 8 229 0.0 0.0 0.00 0.00 0.00 94 1020.7
20220930124303 7 229 0.0 0.0 0.00 0.00 0.00 93 1020.6
20220930121802 8 229 0.0 0.0 0.00 0.00 0.00 93 1020.7
20220930113302 8 229 0.0 0.0 0.00 0.00 0.00 92 1020.6
20220930112803 8 229 0.0 0.0 0.00 0.00 0.00 92 1020.5
20220930112305 8 229 0.0 0.0 0.00 0.00 0.00 92 1020.4
20220930110302 8 229 0.0 0.0 0.00 0.00 0.00 92 1020.3
20220930105305 8 229 0.0 0.0 0.00 0.00 0.00 92 1020.3
20220930104803 8 229 0.0 0.0 0.00 0.00 0.00 92 1020.3
20220930104302 8 229 0.0 0.0 0.00 0.00 0.00 92 1020.3
20220930102305 8 229 0.0 0.0 0.00 0.00 0.00 91 1020.1
20220930095304 9 229 0.0 0.0 0.00 0.00 0.00 90 1020.1
20220930094803 9 229 0.0 0.0 0.00 0.00 0.00 90 1020.1
20220930091302 10 229 0.0 0.0 0.00 0.00 0.00 88 1020.0
20220930085802 10 229 0.0 0.0 0.00 0.00 0.00 88 1020.1
20220930085305 10 229 0.0 0.0 0.00 0.00 0.00 87 1020.1
20220930084302 10 229 0.0 0.0 0.00 0.00 0.00 88 1020.2
20220930080802 10 229 0.0 0.0 0.00 0.00 0.00 87 1020.4
20220930074303 10 230 0.0 0.0 0.00 0.00 0.00 86 1020.7
20220930073803 10 230 0.0 0.0 0.00 0.00 0.00 86 1020.6
20220930072305 11 230 0.0 0.0 0.00 0.00 0.00 84 1020.8
20220930071803 11 230 0.0 0.0 0.00 0.00 0.00 84 1020.8
20220930070303 11 230 0.0 0.0 0.00 0.00 0.00 83 1020.9
20220930065803 12 230 0.0 0.0 0.00 0.00 0.00 83 1020.9
20220930064302 12 229 0.0 0.0 0.00 0.00 0.00 82 1021.1
20220930063802 12 229 0.0 0.0 0.00 0.00 0.00 82 1021.1
20220930062803 12 229 0.0 0.0 0.00 0.00 0.00 81 1021.1
20220930062304 12 229 0.0 0.0 0.00 0.00 0.00 81 1021.1
20220930054803 12 229 0.0 0.0 0.00 0.00 0.00 80 1021.5
20220930053803 12 229 0.0 0.0 0.00 0.00 0.00 80 1021.5
20220930045305 13 228 0.0 0.0 0.00 0.00 0.00 76 1021.9
20220930043803 13 227 0.0 0.0 0.00 0.00 0.00 74 1022.0
20220930035803 14 257 0.0 0.0 0.00 0.00 0.00 71 1022.4
20220930035304 14 257 0.0 0.0 0.00 0.00 0.00 71 1022.3
20220930034303 14 181 0.0 0.0 0.00 0.00 0.00 70 1022.3
20220930032803 15 172 0.0 0.0 0.00 0.00 0.00 69 1022.4
20220930031802 15 168 0.0 0.0 0.00 0.00 0.00 68 1022.4
20220930031302 15 180 0.0 0.0 0.00 0.00 0.00 68 1022.4
20220930024802 15 288 0.0 0.0 0.00 0.00 0.00 67 1022.4
20220930024303 15 273 0.0 0.0 0.00 0.00 0.00 67 1022.5
20220930023803 15 242 0.0 0.0 0.00 0.00 0.00 67 1022.4
20220930022803 15 234 0.0 0.0 0.00 0.00 0.00 67 1022.4
20220930021802 15 222 0.0 0.0 0.00 0.00 0.00 67 1022.5
20220930013303 16 222 0.0 0.0 0.00 0.00 0.00 65 1022.4
20220930012304 16 223 0.0 0.0 0.00 0.00 0.00 64 1022.4
20220930011803 16 223 0.0 0.0 0.00 0.00 0.00 65 1022.4
20220930011303 16 223 0.0 0.0 0.00 0.00 0.00 64 1022.5
20220930005803 16 223 0.0 0.0 0.00 0.00 0.00 63 1022.3
20220930005305 16 223 0.0 0.0 0.00 0.00 0.00 63 1022.4
20220930004302 17 223 0.0 0.0 0.00 0.00 0.00 62 1022.3
20220930003802 17 223 0.0 0.0 0.00 0.00 0.00 62 1022.3
20220929234302 18 279 0.0 0.0 0.00 0.00 0.00 57 1022.3
20220929230803 19 226 0.0 0.0 0.00 0.00 0.00 54 1022.3
20220929230302 19 234 0.0 1.6 0.00 0.00 0.00 53 1022.3
20220929225803 19 300 0.0 3.2 0.00 0.00 0.00 53 1022.3
20220929224803 19 274 0.0 1.6 0.00 0.00 0.00 53 1022.3
20220929223803 20 261 0.0 1.6 0.00 0.00 0.00 53 1022.2
20220929222802 20 197 0.0 1.6 0.00 0.00 0.00 50 1022.2
20220929222305 20 291 0.0 1.6 0.00 0.00 0.00 50 1022.2
20220929221802 20 169 0.0 0.0 0.00 0.00 0.00 48 1022.4
20220929215803 20 283 0.0 9.7 0.00 0.00 0.00 48 1022.3
20220929214303 21 297 0.0 4.8 0.00 0.00 0.00 46 1022.4
20220929213302 21 318 0.0 8.0 0.00 0.00 0.00 45 1022.4
20220929212803 21 167 0.0 1.6 0.00 0.00 0.00 45 1022.6
20220929212305 22 272 0.0 1.6 0.00 0.00 0.00 45 1022.6
20220929211803 22 136 0.0 8.0 0.00 0.00 0.00 44 1022.6
20220929210303 23 286 0.0 11.3 0.00 0.00 0.00 41 1022.6
20220929204803 23 105 0.0 1.6 0.00 0.00 0.00 42 1022.5
20220929203303 23 354 1.6 12.9 0.00 0.00 0.00 41 1022.5
20220929200303 24 0 3.2 4.8 0.00 0.00 0.00 41 1022.6
20220929195305 23 302 0.0 8.0 0.00 0.00 0.00 41 1022.7
20220929193803 23 327 0.0 3.2 0.00 0.00 0.00 39 1022.8
20220929192305 23 269 0.0 1.6 0.00 0.00 0.00 43 1023.1
20220929191303 23 134 0.0 4.8 0.00 0.00 0.00 43 1023.2
20220929190803 23 262 0.0 0.0 0.00 0.00 0.00 45 1023.4
20220929185305 23 326 0.0 4.8 0.00 0.00 0.00 46 1023.8
20220929183303 22 99 0.0 4.8 0.00 0.00 0.00 49 1024.4
20220929181302 22 143 0.0 12.9 0.00 0.00 0.00 49 1025.0
20220929180803 22 297 0.0 12.9 0.00 0.00 0.00 47 1025.0
20220929175802 22 318 0.0 0.0 0.00 0.00 0.00 48 1025.1
20220929173803 22 101 0.0 0.0 0.00 0.00 0.00 49 1025.3